Retour au catalogue

STARLINK-2711

ActifCommunicationsVLEO
NORAD 48673·PAYLOAD·🇺🇸 United States

Lancé May 26, 2021 depuis Cape Canaveral Space Force Station

Loading…

Prochains Passages (prochaines 24 heures)

TLE

FraisSource: CelesTrak SupGP

Époque: Sep 14, 2026, 20:20 UTC

1 48673C 21044AM  26257.84770833 -.00031080  00000+0 -99931-3 0  2575
2 48673  53.1575 315.1200 0001144  83.1676 235.6386 15.31722157    17

Suivez STARLINK-2711 en temps réel avec AllMySat

Download on the App Store